Waarnemingen

Advertentie
Mijn weer
Marseille/Marignane, Frankrijk (7650): temperatuur & dauwpunt: 14.07.2018 04:00:00 - 20.07.2018 04:00:00 (CEST)Marseille/Marignane, Frankrijk (7650): temperatuur 5cm: 14.07.2018 04:00:00 - 20.07.2018 04:00:00 (CEST)Marseille/Marignane, Frankrijk (7650): temperatuur -20cm & temperatuur -100cm: 14.07.2018 04:00:00 - 20.07.2018 04:00:00 (CEST)Marseille/Marignane, Frankrijk (7650): windsnelheid & windstoten: 14.07.2018 04:00:00 - 20.07.2018 04:00:00 (CEST)Marseille/Marignane, Frankrijk (7650): windrichting: 14.07.2018 04:00:00 - 20.07.2018 04:00:00 (CEST)Marseille/Marignane, Frankrijk (7650): luchtdruk: 14.07.2018 04:00:00 - 20.07.2018 04:00:00 (CEST)Marseille/Marignane, Frankrijk (7650): zicht: 14.07.2018 04:00:00 - 20.07.2018 04:00:00 (CEST)Marseille/Marignane, Frankrijk (7650): Zonneschijnduur: 14.07.2018 04:00:00 - 20.07.2018 04:00:00 (CEST)Marseille/Marignane, Frankrijk (7650): neerslag: 14.07.2018 04:00:00 - 20.07.2018 04:00:00 (CEST)
Datum & Tijd tt [°C] td [°C] tt 5cm [°C] tt -20cm [°C] tt -100cm [°C] ff [km/u] ff [kn] fx [km/u] fx [kn] dd ppp [hPa] vv [km] sd [min] rr [mm]
20.07.2018 04:00:00 21,3 15,8 18,9 28,1 22,6 7 4 9 5 ZO 1013,7 36 0 0,0
20.07.2018 03:00:00 22,6 16,4 20,7 28,7 22,6 6 4 11 6 OZO 1013,9 38 0 0,0
20.07.2018 02:00:00 22,6 17,1 19,9 29,2 22,6 9 5 11 6 OZO 1014,4 36 0 0,0
20.07.2018 01:00:00 22,0 18,4 20,8 29,8 22,6 8 4 14 8 OZO 1014,8 31 0 0,0
20.07.2018 00:00:00 22,8 19,2 21,6 30,4 22,6 12 7 14 8 OZO 1014,5 31 0 0,0
19.07.2018 23:00:00 23,7 17,9 23,0 31,1 22,6 9 5 19 10 ZZO 1014,2 42 0 0,0
19.07.2018 22:00:00 24,6 17,3 23,9 31,7 22,6 13 7 18 10 Z 1013,8 47 0 0,0
19.07.2018 21:00:00 26,2 16,4 26,2 32,2 22,6 9 5 16 9 ZZO 1013,5 58 50 0,0
19.07.2018 20:00:00 27,5 17,4 30,7 32,5 22,6 10 5 23 13 Z 1013,2 25 60 0,0
19.07.2018 19:00:00 29,1 16,3 33,8 32,5 22,6 14 8 29 16 Z 1013,0 24 60 0,0
19.07.2018 18:00:00 30,6 15,5 35,8 32,2 22,6 18 10 31 17 Z 1012,9 18 60 0,0
19.07.2018 17:00:00 30,9 15,7 37,6 31,6 22,6 19 10 31 17 Z 1013,0 20 60 0,0
19.07.2018 16:00:00 31,6 16,7 38,2 30,8 22,6 23 12 31 17 Z 1013,1 23 60 0,0
19.07.2018 15:00:00 32,6 15,1 38,6 29,9 22,6 14 7 27 14 ZW 1013,0 27 60 0,0
19.07.2018 14:00:00 32,0 15,5 36,9 28,8 22,6 20 11 27 15 Z 1013,6 29 60 0,0
19.07.2018 13:00:00 30,5 15,0 35,0 27,8 22,6 12 7 20 11 WZW 1014,0 19 60 0,0
19.07.2018 12:00:00 29,5 15,6 33,9 26,9 22,6 11 6 20 11 W 1014,1 20 60 0,0
19.07.2018 11:00:00 29,1 15,2 31,9 26,3 22,6 11 6 16 9 WZW 1014,0 20 60 -
19.07.2018 10:00:00 28,4 15,0 31,5 25,9 22,6 5 3 11 6 ZZO 1013,8 50 60 0,0
19.07.2018 09:00:00 26,1 15,5 28,4 25,8 22,6 0 0 6 4 N 1013,8 45 60 0,0
19.07.2018 08:00:00 24,0 17,5 23,4 26,1 22,6 3 1 8 4 ZO 1013,9 28 60 0,0
19.07.2018 07:00:00 22,7 16,9 20,9 26,4 22,6 5 3 11 6 ZO 1013,7 33 15 0,0
19.07.2018 06:00:00 22,4 17,3 20,1 26,8 22,6 13 7 27 14 WNW 1013,6 36 0 0,0
19.07.2018 05:00:00 21,5 16,5 19,6 27,2 22,6 13 7 17 9 W 1013,5 39 0 0,0
19.07.2018 04:00:00 23,3 14,8 20,5 27,7 22,6 4 2 10 5 O 1013,2 53 0 0,0
19.07.2018 03:00:00 23,0 14,6 20,5 28,1 22,6 5 3 11 6 O 1013,4 56 0 0,0
19.07.2018 02:00:00 23,7 15,2 22,0 28,6 22,6 9 5 15 8 ZO 1014,1 58 0 0,0
19.07.2018 01:00:00 24,7 15,6 23,1 29,1 22,6 7 4 18 10 O 1014,7 60 0 0,0
19.07.2018 00:00:00 25,1 15,7 24,8 29,6 22,6 14 8 20 11 NW 1015,7 60 0 0,0
18.07.2018 23:00:00 25,6 16,7 24,5 30,1 22,6 14 8 18 10 W 1016,4 51 0 0,0
18.07.2018 22:00:00 25,2 16,6 24,6 30,7 22,6 13 7 22 12 ZW 1015,2 59 0 0,0
18.07.2018 21:00:00 26,6 14,7 26,3 31,2 22,6 18 10 23 13 W 1014,3 60 10 0,0
18.07.2018 20:00:00 29,3 12,3 30,4 31,5 22,6 9 5 19 10 ZW 1013,5 43 36 0,0
18.07.2018 19:00:00 31,0 12,4 34,0 31,4 22,6 14 7 25 13 ZZW 1012,8 21 60 0,0
18.07.2018 18:00:00 31,6 13,8 35,5 31,1 22,6 18 10 36 20 WZW 1013,1 18 60 0,0
18.07.2018 17:00:00 33,1 13,2 37,4 30,5 22,6 24 13 37 20 WZW 1013,3 20 60 0,0
18.07.2018 16:00:00 34,0 7,1 39,5 29,6 22,6 14 8 20 11 ZW 1013,3 22 60 0,0
18.07.2018 15:00:00 33,4 9,4 38,6 28,5 22,6 10 5 17 9 W 1013,7 22 60 0,0
18.07.2018 14:00:00 32,5 10,5 37,4 27,5 22,7 12 7 17 9 WZW 1014,3 24 60 0,0
18.07.2018 13:00:00 31,2 13,9 35,5 26,3 22,6 9 5 22 12 W 1014,9 28 60 0,0
18.07.2018 12:00:00 29,3 14,7 32,8 25,3 22,6 12 7 19 11 WZW 1015,2 30 60 0,0
18.07.2018 11:00:00 27,4 15,1 31,4 24,6 22,6 13 7 17 9 W 1015,4 33 60 0,0
18.07.2018 10:00:00 26,4 14,2 29,7 24,2 22,7 7 4 14 7 WZW 1015,2 34 60 0,0
18.07.2018 09:00:00 24,9 14,4 27,2 24,2 22,7 5 3 11 6 N 1015,3 36 60 0,0
18.07.2018 08:00:00 23,5 14,5 21,0 24,4 22,6 4 2 11 6 N 1015,0 29 60 0,0
18.07.2018 07:00:00 19,4 13,6 16,4 24,8 22,7 8 5 11 6 ZO 1014,6 25 21 0,0
18.07.2018 06:00:00 19,1 13,7 16,5 25,2 22,7 6 4 13 7 ZZO 1014,4 33 0 0,0
18.07.2018 05:00:00 20,1 14,2 17,2 25,6 22,7 5 3 17 9 OZO 1014,1 42 0 0,0
18.07.2018 04:00:00 21,6 14,5 18,0 26,0 22,7 2 1 10 5 W 1014,2 52 0 0,0
18.07.2018 03:00:00 21,8 14,4 19,8 26,5 22,7 9 5 24 13 ZO 1014,2 51 0 0,0
18.07.2018 02:00:00 24,8 14,3 22,7 26,9 22,7 17 9 28 15 WNW 1014,4 60 0 0,0
18.07.2018 01:00:00 25,3 13,2 23,5 27,4 22,7 4 2 16 9 WNW 1014,5 60 0 0,0
18.07.2018 00:00:00 26,0 14,1 21,6 27,9 22,7 3 1 14 8 O 1014,3 48 0 0,0
17.07.2018 23:00:00 27,1 13,8 25,0 28,4 22,7 9 5 25 13 NW 1014,0 60 0 0,0
17.07.2018 22:00:00 27,7 12,5 26,5 28,9 22,7 13 7 32 18 WNW 1013,7 60 0 0,0
17.07.2018 21:00:00 30,0 11,5 29,6 29,1 22,7 21 12 32 17 NW 1012,9 42 52 0,0
17.07.2018 20:00:00 31,7 13,0 33,2 29,2 22,7 23 12 44 24 NW 1012,7 14 60 0,0
17.07.2018 19:00:00 32,9 10,3 35,4 29,1 22,7 26 14 43 23 NW 1012,6 12 60 0,0
17.07.2018 18:00:00 33,5 10,2 36,6 28,7 22,7 31 17 53 28 NW 1012,7 11 60 0,0
17.07.2018 17:00:00 33,6 12,6 37,4 28,1 22,7 29 16 53 29 NW 1013,0 10 60 0,0
17.07.2018 16:00:00 33,5 13,0 37,3 27,4 22,7 35 19 59 32 NW 1013,1 10 60 0,0
17.07.2018 15:00:00 32,9 13,0 36,6 26,5 22,7 37 20 59 32 NW 1013,1 10 60 0,0
17.07.2018 14:00:00 32,2 13,9 35,5 25,7 22,7 40 22 62 34 NW 1013,3 12 60 0,0
17.07.2018 13:00:00 31,4 14,5 33,5 24,8 22,7 34 18 58 31 NW 1013,7 14 60 0,0
17.07.2018 12:00:00 29,8 14,7 32,2 24,0 22,7 35 19 50 27 NW 1013,7 15 60 0,0
17.07.2018 11:00:00 28,5 14,3 29,8 23,5 22,7 35 19 52 28 NW 1013,8 18 60 0,0
17.07.2018 10:00:00 27,4 15,4 27,8 23,2 22,7 35 19 53 29 NW 1013,7 22 60 0,0
17.07.2018 09:00:00 25,8 14,9 25,9 23,1 22,7 30 16 47 25 NW 1013,7 29 60 0,0
17.07.2018 08:00:00 24,5 14,6 23,8 23,2 22,7 28 15 45 24 NNW 1013,3 39 60 0,0
17.07.2018 07:00:00 23,8 14,5 22,1 23,4 22,7 16 9 42 23 NW 1013,3 34 22 0,0
17.07.2018 06:00:00 23,1 13,6 21,3 23,6 22,7 16 8 44 24 NW 1013,0 52 0 0,0
17.07.2018 05:00:00 22,4 14,5 21,5 23,9 22,7 35 19 45 24 WNW 1012,7 47 0 0,0
17.07.2018 04:00:00 23,0 14,6 21,7 24,2 22,7 25 14 48 26 WNW 1013,0 58 0 0,0
17.07.2018 03:00:00 23,1 15,2 22,2 24,4 22,6 34 18 50 27 WNW 1012,9 58 0 0,0
17.07.2018 02:00:00 23,7 15,5 22,5 24,7 22,7 34 18 45 25 WNW 1012,7 60 0 0,0
17.07.2018 01:00:00 23,8 14,5 22,6 25,1 22,7 23 13 35 19 WNW 1012,4 60 0 0,0
17.07.2018 00:00:00 24,1 15,6 23,1 25,3 22,6 29 16 41 22 WNW 1012,5 58 0 0,0
16.07.2018 23:00:00 24,6 16,6 23,7 25,7 22,6 28 15 46 25 W 1012,1 54 0 0,0
16.07.2018 22:00:00 25,2 16,6 24,3 25,9 22,6 34 19 48 26 WNW 1010,9 57 0 0,0
16.07.2018 21:00:00 25,7 17,4 24,7 26,0 22,6 22 12 39 21 W 1010,3 45 9 0,0
16.07.2018 20:00:00 26,5 17,6 26,6 26,1 22,7 10 5 23 13 WNW 1010,0 35 42 0,0
16.07.2018 19:00:00 26,7 17,7 27,1 26,0 22,6 20 11 28 15 NW 1009,5 40 34 0,0
16.07.2018 18:00:00 25,8 18,2 26,1 26,1 22,6 19 10 34 18 NW 1008,6 14 1 0,0
16.07.2018 17:00:00 24,8 16,8 23,9 26,3 22,6 29 16 43 23 N 1008,1 11 0 0,0
16.07.2018 16:00:00 22,3 17,7 18,3 26,6 22,6 35 19 48 26 N 1007,8 11 0 0,5
16.07.2018 15:00:00 21,4 15,5 18,4 26,9 22,6 30 16 46 25 ONO 1009,0 19 0 2,4
16.07.2018 14:00:00 22,3 19,1 21,0 27,2 22,6 4 2 32 17 ZZW 1008,9 4,9 0 1,0
16.07.2018 13:00:00 23,8 19,1 20,7 27,4 22,6 11 6 34 18 W 1010,2 6 0 2,0
16.07.2018 12:00:00 24,6 16,8 20,6 27,4 22,6 12 7 36 19 NNO 1010,0 9 0 0,2
16.07.2018 11:00:00 25,2 18,6 26,2 27,4 22,6 13 7 21 11 NW 1010,5 18 0 0,0
16.07.2018 10:00:00 24,8 19,2 26,1 27,3 22,6 9 5 14 8 WNW 1010,0 17 4 0,0
16.07.2018 09:00:00 25,2 17,7 25,0 27,4 22,6 4 2 15 8 NW 1009,9 20 6 0,0
16.07.2018 08:00:00 23,7 19,0 22,9 27,6 22,6 6 3 16 9 N 1010,1 15 0 0,0
16.07.2018 07:00:00 23,0 19,0 22,1 27,9 22,6 2 1 17 9 ZO 1010,7 12 0 0,0
16.07.2018 06:00:00 22,6 19,4 22,1 28,3 22,6 15 8 29 16 OZO 1011,2 11 0 0,0
16.07.2018 05:00:00 22,5 19,5 21,8 28,6 22,6 14 8 19 11 ONO 1011,7 10 0 0,0
16.07.2018 04:00:00 23,0 20,5 21,1 29,0 22,6 3 2 10 5 NO 1012,8 14 0 0,0
16.07.2018 03:00:00 22,6 20,1 21,4 29,5 22,6 6 3 14 8 ZO 1013,9 12 0 0,0
16.07.2018 02:00:00 22,7 20,0 22,1 30,0 22,6 14 8 17 9 ZO 1013,7 13 0 0,0
16.07.2018 01:00:00 23,8 20,7 22,0 30,5 22,6 3 2 11 6 NW 1013,9 17 0 0,0
16.07.2018 00:00:00 23,9 20,6 22,5 31,1 22,6 7 4 13 7 ZZO 1013,6 15 0 0,0
15.07.2018 23:00:00 23,9 20,4 23,2 31,7 22,6 7 4 23 12 ZO 1013,6 16 0 0,0
15.07.2018 22:00:00 24,5 20,8 24,1 32,3 22,6 13 7 23 12 ZZO 1013,3 19 0 0,0
15.07.2018 21:00:00 25,1 20,6 25,3 32,9 22,6 14 8 22 12 Z 1013,0 21 38 0,0
15.07.2018 20:00:00 26,6 20,0 29,7 33,1 22,5 15 8 29 16 Z 1012,7 21 60 0,0
15.07.2018 19:00:00 27,6 20,4 32,3 33,1 22,5 23 13 32 17 Z 1012,6 18 60 0,0
15.07.2018 18:00:00 29,8 18,3 34,8 32,8 22,5 20 11 31 17 ZZW 1012,9 17 60 0,0
15.07.2018 17:00:00 30,3 17,7 36,5 32,2 22,5 16 8 33 18 ZZW 1013,2 16 60 0,0
15.07.2018 16:00:00 30,4 16,8 36,9 31,5 22,5 20 11 34 19 Z 1013,8 15 60 0,0
15.07.2018 15:00:00 31,9 14,5 38,1 30,7 22,5 22 12 33 18 ZZW 1014,2 16 60 0,0
15.07.2018 14:00:00 32,9 13,5 38,7 29,7 22,5 21 12 32 18 ZZW 1014,3 18 60 0,0
15.07.2018 13:00:00 32,2 15,2 36,4 28,7 22,5 18 10 29 16 ZZW 1014,3 20 60 0,0
15.07.2018 12:00:00 32,2 18,0 36,6 27,8 22,5 19 10 29 16 W 1014,2 24 60 0,0
15.07.2018 11:00:00 32,3 15,8 33,5 27,2 22,5 19 10 40 21 O 1013,7 22 60 0,0
15.07.2018 10:00:00 29,9 16,0 29,8 26,9 22,5 22 12 34 18 O 1014,1 28 60 0,0
15.07.2018 09:00:00 25,7 16,0 26,9 26,9 22,5 12 6 30 16 NO 1014,9 25 60 0,0
15.07.2018 08:00:00 24,3 15,8 20,5 27,2 22,5 19 10 36 20 N 1015,3 31 31 0,0
15.07.2018 07:00:00 21,5 17,1 19,2 27,6 22,5 2 1 9 5 NO 1015,8 17 0 0,0
15.07.2018 06:00:00 21,5 16,5 19,3 28,0 22,5 8 4 13 7 ZZO 1015,1 18 0 0,0
15.07.2018 05:00:00 21,1 16,5 19,4 28,4 22,5 6 4 10 5 ZO 1014,4 19 0 0,0
15.07.2018 04:00:00 22,3 16,3 19,8 28,9 22,5 3 2 9 5 ZO 1014,5 19 0 0,0
15.07.2018 03:00:00 22,4 16,9 21,2 29,4 22,5 8 4 13 7 ZO 1014,6 18 0 0,0
15.07.2018 02:00:00 22,9 17,6 21,4 29,9 22,5 7 4 10 5 ZZO 1015,0 19 0 0,0
15.07.2018 01:00:00 23,8 17,8 21,4 30,5 22,5 3 2 10 5 N 1015,6 20 0 0,0
15.07.2018 00:00:00 24,8 17,8 22,9 31,1 22,5 2 1 9 5 ZZW 1015,2 23 0 0,0
14.07.2018 23:00:00 25,7 19,1 22,7 31,7 22,5 7 4 11 6 WNW 1015,1 25 0 0,0
14.07.2018 22:00:00 26,4 18,0 24,7 32,3 22,5 5 3 10 5 ZZW 1014,7 27 0 0,0
14.07.2018 21:00:00 27,7 17,8 27,6 32,7 22,5 9 5 19 10 ZW 1014,1 36 54 0,0
14.07.2018 20:00:00 29,7 16,5 31,5 32,9 22,4 14 7 20 11 WZW 1014,2 47 60 0,0
14.07.2018 19:00:00 30,3 17,7 33,8 32,8 22,5 14 7 24 13 ZZW 1014,1 25 60 0,0
14.07.2018 18:00:00 30,8 17,5 35,2 32,4 22,5 15 8 32 18 ZZW 1014,6 19 60 0,0
14.07.2018 17:00:00 31,1 17,8 36,8 31,8 22,4 12 7 25 14 ZZW 1014,8 18 60 0,0
14.07.2018 16:00:00 30,7 18,4 35,5 31,0 22,4 17 9 36 20 ZZW 1015,5 19 60 0,0
14.07.2018 15:00:00 30,3 18,4 35,3 30,1 22,4 16 8 34 19 ZZW 1015,8 18 60 0,0
14.07.2018 14:00:00 29,7 19,1 36,1 29,2 22,5 18 10 33 18 Z 1016,2 20 60 0,0
14.07.2018 13:00:00 29,2 19,2 34,4 28,3 22,4 24 13 42 23 ZZW 1016,6 19 60 0,0
14.07.2018 12:00:00 29,5 18,0 33,0 27,7 22,4 25 13 34 18 W 1016,4 20 58 0,0
14.07.2018 11:00:00 28,6 16,2 29,8 27,2 22,4 25 13 30 16 W 1015,8 20 34 0,0
14.07.2018 10:00:00 27,6 15,3 29,5 26,9 22,4 17 9 22 12 W 1015,7 29 44 0,0
14.07.2018 09:00:00 27,3 13,6 26,8 26,9 22,4 11 6 17 9 Z 1015,6 43 11 0,0
14.07.2018 08:00:00 26,0 12,4 24,9 27,2 22,4 8 5 34 18 O 1015,3 36 0 0,0
14.07.2018 07:00:00 25,2 12,4 23,9 27,4 22,4 13 7 29 16 NO 1015,7 46 0 0,0
14.07.2018 06:00:00 24,7 13,3 22,2 27,8 22,4 10 6 16 9 N 1016,3 40 0 0,0
14.07.2018 05:00:00 24,0 13,8 22,3 28,2 22,5 6 3 18 10 ZO 1016,9 39 0 0,0
14.07.2018 04:00:00 24,6 15,8 21,8 28,5 22,4 11 6 17 9 NW 1017,8 40 0 0,0

tt = temperatuur
td = dauwpunt
tt 5cm = temperatuur 5cm
tt -20cm = temperatuur -20cm
tt -100cm = temperatuur -100cm
ff = windsnelheid
fx = windstoten
dd = windrichting
ppp = luchtdruk
vv = zicht
sd = Zonneschijnduur
rr = neerslag

Weerstations in de omgeving